www.pogodaiklimat.ru
ПОГОДА в Чаславе
Время
(UTC), дата
04 28.06
05 28.06
06 28.06
07 28.06
08 28.06
09 28.06
10 28.06
11 28.06
12 28.06
13 28.06
14 28.06
15 28.06
16 28.06
17 28.06
18 28.06
19 28.06
20 28.06
21 28.06
22 28.06
23 28.06
00 29.06
01 29.06
02 29.06
03 29.06
04 29.06
05 29.06
06 29.06
07 29.06
08 29.06
09 29.06
10 29.06
11 29.06
12 29.06
13 29.06
14 29.06
15 29.06
16 29.06
17 29.06
18 29.06
19 29.06
20 29.06
21 29.06
22 29.06
23 29.06
00 30.06
01 30.06
02 30.06
03 30.06
04 30.06
05 30.06
06 30.06
07 30.06
08 30.06
09 30.06
10 30.06
11 30.06
12 30.06
13 30.06
14 30.06
15 30.06
16 30.06
17 30.06
18 30.06
19 30.06
20 30.06
21 30.06
22 30.06
23 30.06
00 1.07
01 1.07
02 1.07
03 1.07
04 1.07
05 1.07
06 1.07
07 1.07
08 1.07
09 1.07
10 1.07
11 1.07
12 1.07
13 1.07
14 1.07
15 1.07
16 1.07
17 1.07
18 1.07
19 1.07
20 1.07
21 1.07
22 1.07
23 1.07
00 2.07
01 2.07
02 2.07
03 2.07
04 2.07
05 2.07
06 2.07
07 2.07
08 2.07
09 2.07
10 2.07
11 2.07
12 2.07
13 2.07
14 2.07
15 2.07
16 2.07
17 2.07
18 2.07
19 2.07
20 2.07
21 2.07
22 2.07
23 2.07
00 3.07
01 3.07
02 3.07
03 3.07
04 3.07
05 3.07
06 3.07
07 3.07
08 3.07
09 3.07
10 3.07
11 3.07
12 3.07
13 3.07
14 3.07
15 3.07
16 3.07
17 3.07
18 3.07
19 3.07
20 3.07
21 3.07
22 3.07
23 3.07
00 4.07
01 4.07
02 4.07
03 4.07
04 4.07
05 4.07
06 4.07
07 4.07
08 4.07
09 4.07
10 4.07
11 4.07
12 4.07
13 4.07
14 4.07
15 4.07
16 4.07
17 4.07
18 4.07
19 4.07
20 4.07
21 4.07
22 4.07
23 4.07
00 5.07
01 5.07
02 5.07
03 5.07
04 5.07
Ветер
(напр.,м/с)
Видим. Явления Облачность Т
(С)
Тd
(С)
f
(%)
Тe
(С)
Тes
(С)
Комфортность P
(гПа)
Po
(гПа)
Тmin
(С)
Tmax
(С)
R
(мм)
R24
(мм)
S
(см)
С 1 20 км 4/0
[Ci fib]
+18.3 +16.4 89 +20 +20 1014.7 986.9
СВ 1 20 км 1/0
[Ci fib]
+20.8 +16.4 76 +25 +28 комфорт 1014.7 987.1
В 1 20 км {ливн. дождь} 4/0
[Ci fib]
+22.4 +16.7 70 +27 +32 душно 1014.8 987.3 +17.7 0.0 0.0
ЮВ 1 20 км 5/0
[Ac trans Ci fib]
+24.7 +18.3 68 +29 +37 душно 1014.7 987.5
Ю 1 20 км 5/1 800 м
[Cu hum Ci fib]
+25.3 +18.4 66 +30 +41 душно 1014.6 987.4
Ю 2 20 км 4/3 840 м
[Cu med, cong Ci fib]
+26.0 +18.7 64 +31 +41 очень
душно
1014.4 987.3
ЮЗ 2 20 км 4/4 900 м
[Cu med, cong]
+27.3 +18.2 58 +32 +42 очень
душно
1014.2 987.2
Ю 1 20 км 6/6 1050 м
[Cu med, cong]
+27.8 +18.3 56 +33 +41 очень
душно
1013.7 986.8
СЗ 2 20 км 5/5 1350 м
[Cu med, cong]
+29.0 +16.6 47 +32 +41 душно 1012.9 986.1
ЮВ 2 20 км 6/5 1470 м
[Cu med, cong Ci sp]
+29.4 +16.5 46 +33 +40 душно 1012.3 985.5
З 5 20 км гроза без осадков 9/9 1470 м
[Cb calv]
+26.7 +16.5 54 +30 +31 душно 1012.5 985.5
ЮВ 3 20 км слаб. ливневой дождь, в посл. час гроза 8/5 1200 м
[Cu med, cong Ac cuf]
+25.1 +18.6 67 +30 +32 душно 1013.3 986.1
СЗ 3 20 км в посл. час дождь 8/4 1200 м
[Cu med, cong Ac cuf]
+25.3 +18.7 67 +30 +31 душно 1013.3 986.2
С 1 20 км в посл. час ливневой дождь 6/5 870 м
[Cu Sc Ac trans]
+22.9 +20.7 87 +30 +31 очень
душно
1013.4 986.1
В 1 20 км {гроза, ливн. дождь} 6/3 900 м
[Cu med, cong Ac trans]
+23.2 +19.0 77 +29 +30 душно 1013.0 985.7 +29.9 3
З 1 20 км в посл. час гроза 8/3 1300 м
[Sc diur, vesp Ac cuf Ci sp]
+22.2 +20.5 90 +29 +29 очень
душно
1013.4 986.0
Ю 2 20 км 6/0
[Ac trans Ci sp]
+20.6 +19.3 92 +25 +25 комфорт 1013.5 985.9
СЗ 2 7000 м дымка {гроза} 5/3 60 м
[St Ac trans Ci fib]
+20.0 +19.3 96 +24 +24 комфорт 1013.5 985.9
Ю 2 7000 м дымка 9/6 90 м
[Sc As trans]
+20.0 +19.1 95 +24 +24 комфорт 1013.8 986.2
З 3 7000 м гроза, ливневой дождь 10/10 210 м
[Cb calv]
+19.3 +18.5 95 +22 +22 комфорт 1014.0 986.3
З 3 15 км слаб. ливневой дождь, в посл. час гроза 10/6 1500 м
[Sc As op]
+18.8 +17.7 93 +20 +20 1013.5 985.8 2
Ю 5 7000 м слаб. дождь 10/6 600 м
[Sc As op]
+18.2 +17.2 94 +18 +18 1014.6 986.8
ЮВ 1 7000 м ливневой дождь, в посл. час гроза 10/5 600 м
[Sc As op]
+17.5 +16.7 95 +19 +19 1014.1 986.2
З 1 10 км слаб. дождь {гроза} 10/8 420 м
[Sc As op]
+17.5 +16.7 95 +19 +19 1013.5 985.6
З 2 3000 м дождь 10/10 120 м
[Sc]
+17.5 +16.9 96 +18 +18 1013.0 985.1
СЗ 3 4000 м слаб. дождь 10/6 90 м
[St As op]
+16.9 +16.2 96 +17 +17 1013.2 985.3
СЗ 2 8000 м слаб. дождь {гроза} 10/8 150 м
[St As op]
+16.7 +15.9 95 +17 +17 1013.4 985.4 +16.6 19 21.1
В 1 8000 м дождь 10/8 150 м
[St As op]
+16.7 +16.1 96 +18 +18 1013.1 985.1
СЗ 1 8000 м слаб. дождь 10/8 180 м
[St As op]
+16.8 +16.0 95 +18 +18 1013.1 985.2
З 2 10 км слаб. дождь 10/8 120 м
[St As op]
+16.9 +16.0 94 +17 +18 1013.5 985.6
З 3 15 км слаб. дождь 10/10 180 м
[Sc]
+17.7 +15.8 89 +18 +18 1013.1 985.2
ЮЗ 2 20 км в посл. час дождь 10/10 330 м
[Sc]
+18.3 +15.6 84 +19 +19 1013.3 985.5
ЮЗ 2 20 км ливневой дождь 10/10 480 м
[Cu Sc]
+18.5 +15.3 82 +20 +20 1012.9 985.1 6
ЮЗ 4 20 км в посл. час ливневой дождь 9/9 540 м
[Cu Sc]
+19.6 +15.0 75 +22 +23 комфорт 1012.5 984.8
З 6 20 км 9/9 750 м
[Cu Sc]
+19.3 +14.3 73 +20 +21 1011.9 984.2
ЮЗ 6 20 км {ливн. дождь} 8/3 800 м
[Cu hum Ac trans]
+19.8 +12.4 62 +21 +22 комфорт 1011.8 984.1
ЮЗ 5 20 км 4/1 1350 м
[Cu hum Ci fib]
+20.8 +13.6 63 +23 +25 комфорт 1011.3 983.8
ЮЗ 4 20 км 1/0
[Ac trans]
+20.7 +13.5 63 +23 +25 комфорт 1011.4 983.8
ЮЗ 4 20 км {ливн. дождь} 4/0
[Ac trans]
+19.8 +13.6 67 +22 +22 комфорт 1011.2 983.6 +21.0 6
ЮЗ 4 25 км 4/0
[Ac cuf]
+17.9 +13.4 75 +18 +18 1011.5 983.7
ЮЗ 3 25 км 1/0
[Ac trans]
+15.0 +11.8 81 +14 +14 1012.3 984.2
ЮЗ 2 25 км 1/0 2000 м
[Ac trans]
+14.2 +10.8 80 +14 +14 1012.6 984.4
ЮЗ 3 25 км 3/0
[Ac trans]
+13.5 +10.5 82 +12 +12 1012.8 984.5
Ю 2 25 км ясно +13.0 +10.2 83 +12 +12 1013.0 984.6
В 1 20 км ясно +13.8 +9.9 77 +14 +14 1012.8 984.5
штиль 0 20 км 6/0
[Ac und]
+11.8 +10.3 91 +11 +11 1012.8 984.3
В 2 20 км 6/3 1500 м
[Sc Ac trans]
+13.5 +10.5 82 +13 +13 1012.4 984.1
В 1 20 км 6/3 1500 м
[Sc Ac trans]
+12.7 +10.5 86 +13 +13 1012.6 984.2
В 1 20 км 4/4 1500 м
[Sc Ac trans]
+14.5 +11.3 81 +15 +15 1012.8 984.6
С 1 20 км 1/0
[Ac trans]
+17.0 +12.4 74 +18 +20 1012.9 984.9
ЮЗ 6 20 км 3/0 2000 м
[Ac trans]
+17.6 +11.7 68 +17 +18 1013.1 985.2 +11.6 5.5
З 5 20 км 6/6 900 м
[Cu Sc]
+18.6 +11.0 61 +19 +21 1013.3 985.5
ЮЗ 6 20 км 5/5 1200 м
[Cu hum]
+19.7 +9.9 53 +21 +23 комфорт 1013.3 985.6
ЮЗ 6 20 км 5/5 1500 м
[Cu hum]
+20.6 +9.7 50 +22 +25 комфорт 1013.2 985.5
З 6 20 км 5/5 1500 м
[Cu hum]
+20.7 +8.3 45 +22 +25 комфорт 1012.7 985.1
З 5 20 км 5/5 1500 м
[Cu hum]
+21.5 +9.5 46 +23 +28 комфорт 1012.1 984.6
ЮЗ 5 20 км 5/5 1500 м
[Cu hum]
+22.9 +9.5 43 +25 +29 комфорт 1011.5 984.1
ЮЗ 7 20 км 5/5 1500 м
[Cu hum]
+23.0 +10.5 45 +25 +27 комфорт 1011.0 983.6
ЮЗ 6 20 км 5/5 1500 м
[Cu hum]
+24.3 +10.3 41 +25 +28 комфорт 1010.5 983.3
ЮЗ 6 20 км 4/4 1500 м
[Cu hum]
+24.3 +10.2 41 +25 +27 комфорт 1010.1 982.9
ЮЗ 5 20 км 3/3 1500 м
[Cu hum]
+23.6 +11.7 47 +25 +27 комфорт 1009.9 982.6
ЮЗ 4 20 км 4/4 1500 м
[Cu hum]
+23.3 +12.2 50 +26 +27 жарко 1009.6 982.3
ЮЗ 3 20 км 4/0 2000 м
[Ac trans]
+22.3 +13.5 57 +25 +26 комфорт 1009.8 982.4 +24.7
ЮЗ 4 20 км 3/0
[Ac trans]
+19.8 +13.4 67 +22 +22 комфорт 1010.1 982.5
ЮЗ 4 20 км 5/5 1500 м
[Sc]
+17.7 +12.9 73 +17 +17 1010.9 983.1
ЮЗ 2 20 км 1/1 1500 м
[Sc]
+16.4 +12.7 79 +17 +17 1011.6 983.6
ЮЗ 4 20 км 4/4 1500 м
[Sc]
+16.0 +12.7 81 +15 +15 1012.1 984.1
Ю 4 20 км ясно +15.7 +12.1 79 +15 +15 1012.2 984.1
ЮЗ 3 20 км ясно +14.7 +11.7 82 +14 +14 1012.2 984.0
Ю 4 20 км ясно +14.4 +11.5 83 +13 +13 1012.2 984.0
Ю 3 20 км ясно +14.4 +11.3 82 +13 +13 1012.1 983.9
ЮЗ 3 20 км ясно +14.8 +11.3 80 +14 +14 1012.3 984.1
Ю 3 20 км ясно +15.1 +11.9 81 +14 +15 1012.2 984.1
Ю 4 20 км ясно +17.6 +12.9 74 +17 +19 1012.4 984.5
ЮЗ 4 25 км ясно +20.4 +13.4 64 +23 +26 комфорт 1012.1 984.5 +14.0
Ю 3 25 км 1/0
[Ci]
+21.8 +13.4 59 +25 +31 комфорт 1011.9 984.4
ЮЗ 4 25 км 4/4 1050 м
[Cu hum]
+23.2 +14.3 57 +27 +32 душно 1011.4 984.1
Ю 4 25 км 4/4 1320 м
[Cu hum]
+24.3 +15.0 56 +27 +33 жарко 1011.0 983.8
Ю 4 25 км 3/3 1350 м
[Cu hum]
+25.2 +14.2 50 +28 +36 жарко 1010.6 983.5
ЮЗ 5 25 км 3/3 1440 м
[Cu hum]
+26.4 +14.7 49 +29 +36 жарко 1010.1 983.1
Ю 5 25 км 4/4 1500 м
[Cu hum]
+27.5 +15.9 49 +31 +36 душно 1009.5 982.6
Ю 5 25 км 5/3 1500 м
[Cu hum Ci]
+28.2 +14.8 44 +31 +36 душно 1008.9 982.1
Ю 3 25 км 5/3 1500 м
[Cu hum Ci fib]
+28.9 +16.0 46 +32 +38 душно 1008.1 981.4
Ю 3 25 км 5/5 1500 м
[Cu hum]
+29.4 +14.7 41 +32 +35 душно 1007.6 980.9
ЮЗ 3 25 км 6/6 1500 м
[Cu hum]
+29.5 +16.9 47 +33 +35 душно 1007.1 980.5
ЮЗ 2 25 км 6/1 1500 м
[Cu hum Ac As]
+28.8 +17.6 51 +33 +34 очень
душно
1007.2 980.5
Ю 2 25 км 6/6 1500 м
[Cu med, cong]
+27.7 +17.8 55 +32 +32 очень
душно
1007.1 980.3 +29.7
ЮВ 3 25 км 6/0
[Ac As Ci]
+25.8 +17.9 62 +30 +30 душно 1007.2 980.3
Ю 4 25 км 6/0
[Ac As Ci]
+24.3 +18.0 68 +29 +29 душно 1007.4 980.3
Ю 4 20 км гроза без осадков 9/5 1500 м
[Cb calv Ac As]
+23.5 +18.0 71 +28 +28 душно 1007.9 980.7
Ю 5 20 км в посл. час гроза 6/0
[Ci fib]
+22.9 +16.9 69 +28 +28 душно 1007.7 980.5
СВ 1 20 км 6/0
[Ci fib]
+21.4 +16.6 74 +25 +25 комфорт 1007.8 980.4
ЮВ 4 25 км {гроза} 8/0
[Ci]
+19.8 +16.0 79 +22 +22 комфорт 1008.1 980.6
ЮВ 3 20 км 8/0
[Ci fib]
+19.7 +16.2 80 +22 +22 комфорт 1008.8 981.2
С 3 20 км 4/0
[Ac trans Ci fib]
+21.7 +15.4 67 +25 +25 комфорт 1008.9 981.5
З 4 20 км 4/0 2000 м
[Ac trans]
+18.7 +15.5 82 +20 +20 1009.4 981.7
З 2 20 км 4/0
[Ac trans Ci fib]
+18.9 +16.1 84 +21 +21 комфорт 1010.0 982.3
ЮЗ 2 25 км 6/0
[Ac trans Ci fib]
+20.4 +16.4 78 +24 +26 комфорт 1010.0 982.5
ЮЗ 3 20 км 4/0
[Ac trans Ci fib]
+22.1 +16.5 71 +26 +29 душно 1010.6 983.2 +18.5
ЮЗ 4 20 км 6/0
[Ac trans]
+22.1 +16.7 71 +26 +30 душно 1011.1 983.7
Ю 3 20 км 4/1 840 м
[Cu hum Ac trans]
+23.7 +16.2 63 +27 +34 жарко 1010.9 983.7
З 4 20 км 5/5 900 м
[Cu hum]
+24.8 +15.9 58 +28 +33 жарко 1010.6 983.5
ЮЗ 4 20 км 6/6 1020 м
[Cu hum Cs]
+25.0 +14.0 50 +27 +32 жарко 1010.7 983.6
З 2 20 км 6/5 1200 м
[Cu hum Ac trans]
+26.3 +15.6 52 +29 +37 жарко 1010.3 983.3
ЮЗ 4 20 км 8/6 1300 м
[Cu hum Ac trans Ci]
+27.2 +16.8 53 +31 +34 душно 1009.8 982.9
З 6
{13}
20 км слаб. ливневой дождь 9/9 900 м
[Cb calv]
+19.8 +16.1 79 +22 +22 комфорт 1011.4 983.8
Ю 4 5000 м гроза, ливневой дождь 10/10 840 м
[Cb cap]
+18.5 +17.5 94 +19 +19 1012.8 985.0
Ю 2
{13}
20 км слаб. ливневой дождь, в посл. час гроза 10/6 1170 м
[Sc diur, vesp As op]
+18.8 +16.7 88 +21 +21 комфорт 1012.6 984.9
Ю 3 20 км слаб. дождь 8/6 1410 м
[Sc As op]
+19.4 +17.6 89 +22 +23 комфорт 1012.0 984.4
ЮВ 3 20 км в посл. час дождь 8/0
[As op Cs]
+19.9 +17.6 87 +23 +24 комфорт 1011.5 983.9
В 1
{13}
20 км {гроза, ливн. дождь} 6/0
[As op Cs]
+20.4 +17.3 82 +25 +25 комфорт 1011.3 983.8 +27.3 6
ЮВ 3 20 км 3/0
[Ci fib]
+19.5 +16.9 85 +22 +22 комфорт 1011.6 984.0
ЮВ 3 20 км 3/0
[Ci fib]
+18.4 +16.2 87 +19 +19 1012.2 984.4
ЮВ 2 20 км 4/0
[Ac trans Ci fib]
+18.2 +15.8 86 +19 +19 1012.5 984.7
ЮВ 2 20 км 4/0
[Ac trans Ci fib]
+16.8 +15.5 92 +17 +17 1012.3 984.4
ЮВ 3 20 км 6/0
[Ac und Ci fib]
+16.4 +15.0 91 +16 +16 1012.5 984.5
ЮВ 2 20 км 6/0
[Ac und Ci fib]
+16.7 +14.9 89 +17 +17 1012.2 984.3
ЮЗ 1 20 км 9/5 1500 м
[Sc Ac und]
+16.6 +15.5 93 +17 +17 1012.2 984.3
ЮЗ 3 20 км 10/0
[Ac As]
+17.7 +15.9 89 +18 +18 1012.2 984.4
З 4 20 км 10/0 2000 м
[Ac As]
+17.1 +15.7 91 +17 +17 1013.1 985.2
З 4 20 км 10/1 400 м
[Frnb Ac As]
+17.0 +14.7 86 +17 +17 1013.8 985.8
З 3 20 км 10/1 400 м
[Frnb Ac As]
+16.8 +14.4 86 +17 +17 1014.5 986.5
З 4 20 км 9/3 1000 м
[Sc Cs]
+17.5 +14.2 81 +17 +19 1015.2 987.2 +16.2 6.3
З 4 20 км 10/6 450 м
[Cu Sc As op]
+18.1 +14.3 78 +18 +19 1015.6 987.7
СЗ 4 20 км 10/10 450 м
[Cu Sc]
+18.0 +14.1 78 +18 +18 1016.1 988.2
З 5 20 км 8/6 500 м
[Cu Sc Ac trans]
+18.7 +14.4 76 +19 +21 1016.3 988.4
З 6 20 км слаб. ливневой дождь 9/9 700 м
[Cu Sc Ac trans]
+18.6 +13.4 72 +19 +19 1016.7 988.8
З 3 20 км в посл. час ливневой дождь 6/4 600 м
[Cu med, cong Ac trans]
+19.4 +14.1 71 +21 +28 комфорт 1016.6 988.8
З 6 20 км {ливн. дождь} 9/6 960 м
[Cu med, cong Ac trans]
+20.9 +12.7 59 +23 +25 комфорт 1016.3 988.6 0.0
З 3 25 км в посл. час гроза 8/5 1500 м
[Cu med, cong Ac As]
+22.3 +9.8 45 +24 +27 комфорт 1003.9 976.7
СЗ 5 25 км 8/5 1500 м
[Cu med, cong Ci]
+22.7 +7.9 39 +24 +26 комфорт 1003.3 976.1
СЗ 4 20 км 9/3 1200 м
[Cu med, cong Ac trans]
+21.5 +11.8 54 +24 +25 комфорт 1016.2 988.6
З 4 20 км 6/3 1230 м
[Cu med, cong Ac trans]
+21.9 +11.2 51 +24 +26 комфорт 1016.3 988.7
З 2 20 км 8/1 1230 м
[Cu med, cong Ac trans]
+21.7 +11.6 53 +24 +25 комфорт 1016.5 988.9
СЗ 2 20 км 5/1 1300 м
[Sc diur, vesp Ac trans]
+21.5 +12.0 55 +24 +24 комфорт 1016.9 989.2 +22.6 0.0
ЮЗ 1 20 км 3/0
[Ac trans]
+19.6 +12.8 65 +22 +22 комфорт 1017.4 989.6
ЮЗ 2 20 км 3/0
[Ac trans]
+15.8 +13.5 86 +16 +16 1018.5 990.3
З 3 20 км слаб. дождь 8/0 2000 м
[As op]
+16.1 +10.0 67 +16 +16 1003.3 975.5
В 1 20 км 8/4 1500 м
[Sc Ac und]
+15.1 +12.6 85 +16 +16 1019.2 990.9
ЮВ 2 20 км 9/6 1500 м
[Sc Ac trans]
+14.7 +12.3 86 +14 +14 1019.5 991.1
ЮВ 2 20 км 3/3 1500 м
[Sc]
+14.2 +11.7 85 +14 +14 1019.5 991.1
ЮВ 3 20 км 3/3 1500 м
[Sc]
+13.6 +11.5 87 +12 +12 1019.6 991.1
ЮВ 3 20 км 3/3 1500 м
[Sc]
+13.6 +11.1 85 +12 +12 1019.5 991.0
ЮВ 3 20 км 1/0 2000 м
[Ac trans]
+13.2 +10.8 85 +12 +12 1019.3 990.8
ЮВ 2 20 км 3/0
[Ci]
+13.0 +10.9 87 +12 +13 1019.5 991.0
В 2 20 км 1/0
[Ci fib]
+15.0 +11.8 81 +15 +17 1019.4 991.1
В 2 25 км 1/0
[Ci fib]
+17.2 +13.1 77 +18 +22 1019.4 991.3 +12.7 0.0
З 1 25 км 3/0
[Ci]
+19.5 +12.2 63 +22 +31 комфорт 1019.3 991.4
ЮЗ 2 25 км 4/4 960 м
[Cu hum Ci fib]
+20.9 +13.5 63 +24 +31 комфорт 1019.1 991.3
ЮЗ 2 25 км 5/5 1350 м
[Cu hum Ci fib]
+21.5 +11.2 52 +23 +31 комфорт 1018.9 991.2
З 3 25 км 6/6 1500 м
[Cu hum Ci fib]
+22.6 +10.4 46 +24 +30 комфорт 1018.7 991.1
Ю 2 25 км 6/6 1500 м
[Cu hum Ci fib]
+23.4 +10.4 44 +25 +32 комфорт 1018.1 990.6
ЮЗ 2 25 км 6/6 1500 м
[Cu hum Ci fib]
+24.3 +11.9 46 +26 +33 жарко 1017.4 990.0
ЮВ 2 15 км гроза, ливневой дождь 9/8 630 м
[Cb cap Ac cuf Ci ing]
+17.6 +13.7 78 +18 +20 997.0 969.6
ЮЗ 4 25 км 6/4 1500 м
[Cu hum Ac trans]
+24.8 +11.8 44 +26 +30 жарко 1016.2 988.9
Ю 4 25 км 6/1 1500 м
[Cu hum Ac trans]
+24.8 +11.5 43 +26 +29 жарко 1015.9 988.6
З 4 25 км 4/1 1500 м
[Cu hum Ac trans]
+24.9 +12.1 45 +27 +29 жарко 1015.7 988.4
ЮЗ 4 25 км 1/0
[Ac trans]
+24.5 +12.6 47 +26 +27 жарко 1015.4 988.1
ЮЗ 3 25 км 1/0
[Ac trans]
+22.8 +14.0 58 +26 +27 жарко 1015.3 987.8 +25.7
ЮЗ 3 25 км 1/0
[Ac trans]
+19.6 +13.5 68 +21 +21 комфорт 1016.0 988.2
ЮЗ 4 20 км 1/0
[Ci]
+17.6 +12.6 72 +17 +17 1016.5 988.5
ЮЗ 3 20 км ясно +17.0 +12.3 74 +17 +17 1016.5 988.4
ЮЗ 2 20 км ясно +15.9 +12.1 78 +16 +16 1016.8 988.6
ЮЗ 2 20 км ясно +16.5 +11.7 73 +17 +17 1016.7 988.6
ЮЗ 2 20 км ясно +15.1 +11.8 81 +15 +15 1016.9 988.6
ЮЗ 3 20 км ясно +16.7 +11.7 72 +16 +16 1016.4 988.3
ЮЗ 1 20 км 4/0
[Ac trans]
+15.7 +11.8 78 +16 +16 1016.4 988.2
В 1 20 км 1/0
[Ac trans]
+15.1 +11.7 80 +16 +16 1016.4 988.2
СВ 1 20 км 8/0
[Ac und]
+16.8 +12.3 75 +18 +18 1016.6 988.5
Местоположение метеостанции Часлав (Чехия): широта 49.93 долгота 15.38 высота над уровнем моря 239 м.
В архиве по умолчанию представлена погода в Чаславе за последнюю неделю. Архивные данные за месяц целиком и за предыдущие месяцы, начиная с января 2011 года, Вы можете получить, выбрав интересующий диапазон дат из раскрывающегося списка и нажав кнопку "Найти!".
*Определитесь, кто Вы:
Внимание! Время в таблицах - всемирное. Для получения местного времени необходимо прибавить поправку, которая равна 1 ч.
Смотрите также архив погоды в соседних городах и на ближайших метеорологических станциях:
Партнеры нашего сайта:      
Пояснения к столбцам:
  • Ветер - указаны скорость ветра в м/с - средняя за 10 мин, порывы в срок и между сроками (в фигурных скобках) и направление, откуда дует ветер: С - северный,
  • СВ - северо-восточный, В - восточный, ЮВ - юго-восточный, Ю - южный, ЮЗ - юго-западный, З - западный, СЗ - северо-западный.
  • Видимость - горизонтальная дальность видимости в метрах или километрах. При видимости от 1 до 10 км при отсутствии осадков обычно наблюдается дымка, при ухудшении видимости до 1 км и менее - туман. В сухую погоду видимость может ухудшаться дымом, пылью или мглою.
  • Явления - указаны атмосферные явления, наблюдавшиеся в срок или в последний час перед сроком; фигурными скобками обозначены явления, наблюдавшиеся между сроками (за 1-3 часа до срока); квадратными скобками обозначены град или гололедные отложения с указанием их диаметра в мм.
  • Облачность - указаны через наклонную черту общая и нижняя облачность в баллах и высота нижней границы облаков в метрах; квадратными скобками обозначены формы облаков: Ci - перистые, Cs - перисто-слоистые, Cc - перисто-кучевые, Ac - высококучевые, As - высокослоистые, Sc - слоисто-кучевые, Ns - слоисто-дождевые, Cu - кучевые, Cb - кучево-дождевые. Подробнее классификацию облаков см. в Атласе облаков (PDF).
  • T - Температура воздуха - температура, измеренная на высоте 2 м над землей.
  • Td - Температура точки росы - температура, при понижении до которой содержащийся в воздухе водяной пар достигнет насыщения.
  • f - Относительная влажность воздуха - влажноcть воздуха, измеренная на высоте 2 м над землей.
  • Te - Эффективная температура - температура, которую ощущает одетый по сезону человек в тени. Характеристика душности погоды. При расчете учитывается влияние влажности воздуха и скорости ветра на теплоощущения человека.
  • Tes - Эффективная температура на солнце - температура, которую ощущает человек, с поправкой на солнечный нагрев. Характеристика знойности погоды. Зависит от высоты солнца над горизонтом, облачности и скорости ветра. Ночью, в пасмурную погоду, а также при ветре 12 м/с и более поправка равна нулю.
  • P - Атмосферное давление - приведенное к уровню моря атмосферное давление.
  • Po - Атмосферное давление - измеренное на уровне метеостанции атмосферное давление.
  • Tmin - Минимальная температура - минимум температуры воздуха на высоте 2 м над землей.
  • Tmax - Максимальная температура - максимум температуры воздуха на высоте 2 м над землей.
  • R - Количество осадков - Количество выпавших осадков за период времени, мм. При наведении курсора мыши на число - период времени, за который выпало указанное количество осадков.
  • R24 - Количество осадков - Количество выпавших осадков за 24 часа, мм.
  • S - Снежный покров - Высота снежного покрова, см. При наведении курсора мыши на число - состояние снежного покрова и степень покрытия местности в баллах.